FENGYUN 1C DEB

Satellite information

Favourite Embed

Satellite Type and Status

DEBRISIN ORBIT

Key statistics

Satellite FENGYUN 1C DEB at a glance.

Uptime

9617

Days in orbit

Revolutions

≈ 14.3

Per day

Orbit

SSO

Sun Synchronous Orbit

Inclination

99.3

Latest

Satellite identification and parameters

Extended collection of information and parameters for FENGYUN 1C DEB.

Object identification

Identified? True

Debris? True

Object name: FENGYUN 1C DEB

International designator: 1999-025AVR

Object number (NORAD): 30831

Object ID (CCSDS): 30831

Country: PEOPLES REPUBLIC OF CHINA (PRC)

Current information (Y/N): Y

RCS size: SMALL

Orbital parameters

Period: 100.647 minutes

Inclination: 99.3209 deg

SMA: 7167.405 km

Apoapsis: 828.488 km

Periapsis: 750.053 km

RAAN: 34.8296 deg

Eccentricy: 0.00547165

Argument of periapsis: 314.9266 deg

Mean anomaly: 44.7481 deg

Mean motion: 14.30737102 rev/day

Mean motion (dot): 0.00001352 rev/day2

B* drag term: 0.00052703038 1/REarth

Two-line elements (TLE)

Creation date: Sept. 6, 2025, 10:23 a.m.

Reference frame: TEME

Reference center: EARTH

Epoch: Sept. 6, 2025, 2:57 a.m. UTC

TLE line 0: 0 FENGYUN 1C DEB

TLE line 1: 1 30831U 99025AVR 25249.12319450 .00001352 00000-0 52703-3 0 9998

TLE line 2: 2 30831 99.3209 34.8296 0054717 314.9266 44.7481 14.30737102638548

Live tracking on map

Real-time ground track for satellite FENGYUN 1C DEB.

In-orbit conjunctions

A list of the most updated potential collisions computed for object FENGYUN 1C DEB.

Target Orbit TCA Probability of collision Miss distance Type
ARIANE 40 R/B SSO 2025-02-25 19:06:38 0.0002728507 324.0 (m) ROCKET BODY
COSMOS 1275 DEB LEO 2025-01-08 12:20:39 0.000166131 108.0 (m) DEBRIS
NOAA 16 DEB SSO 2024-09-28 02:59:57 0.0001605744 545.0 (m) DEBRIS

Associated space launch

Chinese polar orbiting meteorological satellite

FENGYUN 1C DEB was lifted into orbit during the mission ‘Long March 4B | Feng Yun 1C’, on board a Long March 4B space rocket.

The launch took place on May 10, 1999, 1:33 a.m. from Launch Complex 7.

For more information about the launch, click the button.

Launch to space Long March 4B | Feng Yun 1C
Long March 4B | Feng Yun 1C

Agency: N/A

Status: Launch Successful

Launch date: May 10, 1999, 1:33 a.m. UTC

Rocket: Long March 4B

Launch pad: Launch Complex 7

Location: Taiyuan Satellite Launch Center, People's Republic of China

...

Latest news about this satellite

There are no fresh news available about this satellite. Check back as we update our databases every day.


Newsletter sign-up

Weekly statistics, charts and insights to help you stay on top of the space industry.